Regional & State Weather Roundups


172 
ASUS44 KEWX 181001
RWREWX
SOUTH TEXAS REGIONAL WEATHER ROUNDUP
NATIONAL WEATHER SERVICE AUSTIN/SAN ANTONIO TX
400 AM CST SUN NOV 18 2018
NOTE: "FAIR" INDICATED FEW OR NO CLOUDS BELOW 12,000 FEET WITH NO
SIGNIFICANT WEATHER AND/OR OBSTRUCTIONS TO VISIBILITY.
* - THESE STATIONS ARE NOT NWS OR FAA STATIONS...AND ARE NOT SUBJECT
    TO NWS AND FAA QUALITY CONTROL.
 
TXZ171-172-183>190-181100-
TEXAS HILL COUNTRY AND EDWARDS PLATEAU
  
CITY           SKY/WX    TMP DP  RH WIND       PRES   REMARKS
JUNCTION       CLOUDY    46  39  76 N7        30.20R WCI  42          
*LLANO         CLOUDY    48  39  71 N14       30.22R WCI  43          
BURNET         NOT AVBL                                               
*HORSESHOE BAY CLOUDY    53  46  77 N9        30.17R                  
*KERRVILLE     CLOUDY    57  55  90 W5        30.14R                  
*FREDERICKSBRG CLOUDY    56  54  92 N8        30.14S                  
*ROCKSPRINGS   CLOUDY    57  57 100 CALM      30.17S FOG              
*BOERNE STAGE  CLOUDY    59  59 100 CALM      30.13R                  
*CASTROVILLE   DRIZZLE   63  62  97 N3        30.12R                  
HONDO          CLOUDY    65  61  87 NE8       30.09S                  
*UVALDE        CLOUDY    61  60  97 NE6       30.09S FOG              
DEL RIO        CLOUDY    57  57 100 CALM      30.08R                  
LAUGHLIN AFB   CLOUDY    60  59  96 NE6       30.08R                  
CARRIZO SPRGS  CLOUDY    59  59 100 CALM      30.06S                  
*EAGLE PASS    CLOUDY    50  46  87 CALM      30.08R                  
*FAITH RANCH   CLOUDY    63  63 100 NE6       30.05S                  
$$
TXZ173-191>194-202-209-217>225-228-181100-
CENTRAL AND SOUTH CENTRAL TEXAS
  
CITY           SKY/WX    TMP DP  RH WIND       PRES   REMARKS
GEORGETOWN     CLOUDY    58  56  93 NW12      30.16R                  
AUSTIN/BERGSTM MOCLDY    57  54  89 NW3       30.12R                  
AUSTIN/MABRY   MOCLDY    61  57  87 CALM      30.14R                  
*LAGO VISTA    CLOUDY    61  61 100 CALM      30.15R                  
SAN MARCOS     CLOUDY    61  57  87 MISG      30.12R                  
NEW BRAUNFELS  CLOUDY    62  58  86 NE6       30.10R                  
RANDOLPH AFB   CLOUDY    62  60  93 N6        30.10R                  
PT SAN ANTONIO CLOUDY    63  62  96 NE7       30.07R                  
SAN ANTONIO    CLOUDY    63  60  90 N5        30.11R                  
STINSON FIELD  CLOUDY    64  60  87 N6        30.08R                  
*LA GRANGE     CLOUDY   N/A N/A N/A CALM      30.10R HAZE             
*GIDDINGS      MOCLDY    57  54  88 CALM      30.12S                  
*GONZALES      DRIZZLE   62  58  88 CALM      30.10R                  
$$
TXZ163>164-176>182-195>201-210>213-226-227-235-181100-
SOUTHEAST TEXAS
  
CITY           SKY/WX    TMP DP  RH WIND       PRES   REMARKS
COLLEGE STN    MOCLDY    57  56  96 CALM      30.12S                  
*BRYAN         CLOUDY    55  55 100 CALM      30.15R                  
*CALDWELL      PTCLDY    55  53  92 E3        30.13S                  
*CROCKETT        N/A     54  50  87 CALM      30.17S                  
*BRENHAM       CLOUDY    58  57  97 CALM      30.13S                  
HUNTSVILLE     MOCLDY    55  54  96 E3        30.13S                  
CONROE         CLOUDY    57  57 100 CALM      30.14S                  
HOUSTON BUSH   MOCLDY    57  57 100 NE6       30.12S                  
HOUSTON HOBBY  MOCLDY    59  57  93 E3        30.12R                  
*HOUSTON SW AP CLOUDY    58  56  96 CALM      30.13R                  
PEARLAND       MOCLDY    59  58  96 N5        30.13S                  
HOUSTON HOOKS  MOCLDY    59  57  93 NE3       30.13S                  
ELLINGTON FLD  NOT AVBL                                               
SUGAR LAND     MOCLDY    63  57  81 E5        30.11S                  
*HOUSTON EXEC  CLOUDY    59  57  94 NE3       30.13S                  
*CLEVELAND MUN CLOUDY    53  52  94 CALM      30.15S                  
*WHARTON       CLOUDY    59  55  87 E3        30.11S                  
*COLUMBUS      CLOUDY    60  55  84 E3        30.12S                  
*EAGLE LAKE    CLOUDY    60  57  92 CALM      30.11S                  
$$
TXZ214>216-236>238-181100-
THE UPPER TEXAS COAST
  
CITY           SKY/WX    TMP DP  RH WIND       PRES   REMARKS
*ORANGE        CLOUDY    55  55 100 CALM      30.18R                  
PORT ARTHUR    CLOUDY    59  55  87 E6        30.14S                  
GALVESTON      CLOUDY    65  61  87 E6        30.12S                  
ANGLETON       MOCLDY    61  59  93 CALM      30.11R                  
*BAY CITY      MOCLDY    61  60  95 NE3       30.10S                  
PALACIOS       CLOUDY    66  64  93 E6        30.09R                  
$$
TXZ229>234-239>247-181100-
TEXAS COASTAL BEND AND RIO GRANDE PLAINS
  
CITY           SKY/WX    TMP DP  RH WIND       PRES   REMARKS
VICTORIA       CLOUDY    64  60  87 NE5       30.09S                  
*BEEVILLE      CLOUDY    67  63  85 NE3       30.07R                  
ROCKPORT       LGT RAIN  67  64  90 SE9       30.06S                  
*PORT ARANSAS  CLOUDY    70  66  88 SE8       30.07S                  
*PORT LAVACA   LGT RAIN  66  63  89 CALM      30.10R                  
*INGLESIDE     LGT RAIN  71  66  84 SE5       30.06R                  
CORPUS CHRISTI CLOUDY    68  66  93 E5        30.05S                  
CORPUS NAS     CLOUDY    71  68  90 SE6       30.05R                  
*ROBSTOWN      CLOUDY    66  65  94 E5        30.06S                  
ALICE          CLOUDY    66  65  96 N5        30.05R                  
KINGSVILLE NAS NOT AVBL                                               
COTULLA        CLOUDY    63  63 100 E6        30.07R                  
LAREDO         CLOUDY    67  64  90 E3        30.04R                  
$$
TXZ248>255-181100-
DEEP SOUTH TEXAS
  
CITY           SKY/WX    TMP DP  RH WIND       PRES   REMARKS
BROWNSVILLE    CLOUDY    72  71  97 E8        30.02S                  
PORT ISABEL      N/A     69  66  90 E6        30.02S FOG              
HARLINGEN      MOCLDY    69  67  93 E7        30.02S                  
*HEBBRONVILLE  CLOUDY    66  65  96 CALM      30.06R FOG              
MCALLEN        CLOUDY    71  70  96 SE5       30.03S                  
*WESLACO       CLOUDY    67  65  94 CALM      30.02S FOG              
FALFURRIAS     CLOUDY    68  65  92 CALM      30.04R                  
EDINBURG       CLOUDY    70  67  92 E3        30.03S                  
*ZAPATA        CLOUDY    67  66  99 CALM      30.03S                  
$$
TXZ213>215-236>238-242>244-246-247-251-254-255-181100-
CMAN STATIONS
  
STATION/POSITION TIME  TEMP    WIND        PRES    WAVE
                       AIR SEA DIR/SP/G            HT/PER
                 (UTC) (F)     (DEG/KT/KT) (MB)    (FT/S)
SABINE PASS      0924   57 62   10/  5/  6 1022.4
SEA RIM ST PARK  0900   61      60/  4/  5 1020.9
NORTH JETTY/GLS  0930   65 65   70/  6/  7 1019.5
EAGLE POINT      0930   58 57   70/  4/  5 1020.0
MORGANS POINT    0924   59 60   CALM  /  2 1020.0
PORT O'CONNOR    0930   65 62   70/  7/  7 1018.0
PORT ARANSAS     0900   70 67  130/ 11/ 12 1017.5
MALAQUITE BEACH  0930   70 66  130/ 10/ 11 1017.2
BAFFIN BAY       0930   67 60  150/  8/ 10 1017.5
PORT ISABEL      0930   69 67  120/ 11/ 12 1016.5
$$